Location: Bastelaar
(51.0950°N, 3.8602°E)
Time: 03:57:05
(UTC+00:00)

ATLAS 2AS CENTAUR R/B - Visible Passes

Search period start: 19 February 2026 00:00
Search period end: 01 March 2026 00:00
Orbit: 1050 x 1161 km, 63.7° (Epoch: 18 February)

Date Brightness Start Highest point End Pass type
(mag) Time Alt. Az. Time Alt. Az. Time Alt. Az.
19 Feb 3.6 18:59:53 10° NW 19:05:59 33° NNE 19:08:52 24° ENE visible
19 Feb 3.2 20:51:07 10° NW 20:56:18 53° NNW 20:56:18 53° NNW visible
19 Feb 5.0 22:42:30 10° NW 22:43:43 15° WNW 22:43:43 15° WNW visible
20 Feb 3.8 18:14:30 10° NW 18:20:26 30° N 18:25:23 13° ENE visible
20 Feb 2.8 20:06:02 10° NW 20:12:43 56° NE 20:12:48 55° NE visible
20 Feb 4.3 21:57:09 10° NW 22:00:14 27° WNW 22:00:14 27° WNW visible
21 Feb 3.2 19:20:54 10° NW 19:27:23 44° NNE 19:29:21 35° ENE visible
21 Feb 3.4 21:11:57 10° NW 21:16:46 48° WNW 21:16:46 48° WNW visible
22 Feb 3.5 18:35:43 10° NW 18:41:57 36° NNE 18:45:55 20° ENE visible
22 Feb 2.6 20:26:50 10° NW 20:33:20 82° NNW 20:33:20 82° NNW visible
22 Feb 4.7 22:18:28 10° WNW 22:20:47 19° WNW 22:20:47 19° WNW visible
23 Feb 3.7 17:50:24 10° NW 17:56:25 31° NNE 18:02:22 10° ENE visible
23 Feb 2.7 19:41:45 10° NW 19:48:31 65° NE 19:49:57 52° E visible
23 Feb 4.0 21:32:59 10° NW 21:37:24 33° W 21:37:24 33° W visible
24 Feb 3.0 18:56:39 10° NW 19:03:15 50° NNE 19:06:37 28° E visible
24 Feb 3.0 20:47:43 10° NW 20:54:03 56° WSW 20:54:03 56° WSW visible
24 Feb 5.2 22:41:17 10° W 22:41:29 10° W 22:41:29 10° W visible
25 Feb 3.3 18:11:30 10° NW 18:17:52 40° NNE 18:23:19 14° E visible
25 Feb 2.6 20:02:33 10° NW 20:09:21 80° SW 20:10:45 59° SSE visible
25 Feb 4.6 21:54:36 10° WNW 21:58:12 19° W 21:58:12 19° W visible
26 Feb 2.6 19:17:28 10° NW 19:24:17 76° NE 19:27:32 33° ESE visible
26 Feb 3.9 21:08:53 10° WNW 21:14:39 31° WSW 21:14:59 31° WSW visible
27 Feb 2.8 18:32:23 10° NW 18:39:05 57° NE 18:44:22 17° ESE visible
27 Feb 3.4 20:23:31 10° NW 20:29:53 45° WSW 20:31:49 37° SSW visible
28 Feb 3.1 17:47:15 10° NW 17:53:46 45° NNE 18:00:13 10° ESE visible
28 Feb 2.9 19:38:18 10° NW 19:45:00 66° SW 19:48:45 28° SSE visible
28 Feb 4.8 21:30:59 10° WNW 21:34:41 15° WSW 21:36:12 14° WSW visible
